Location: *
(48.4333°N, 5.0333°W)
Time: 21:52:11
(UTC+00:00)

Cosmos 2366 rocket - Pass Details

Date: 09 April 2020
Orbit: 955 x 997 km, 82.9° (Epoch: 25 May)

Event Time Altitude Azimuth Distance (km) Brightness Sun altitude
Rises 21:20:37 0° 348° (NNW) 3,647 7.8 -21.0°
Reaches altitude 10° 21:23:08 10° 347° (NNW) 2,697 7.1 -21.3°
Maximum altitude 21:29:14 69° 265° (W) 1,025 4.2 -22.1°
Enters shadow 21:32:54 25° 189° (S) 1,814 5.1 -22.5°
